Nador, Morocco

6:55 AM WEST on July 21, 2017 (GMT +0100)
Nador

Weather History for 60338 - September, 2013

Change the Weather History Date:

Wednesday, September 25, 2013

  Actual Average Record
Temperature  
Mean Temperature 73 °F -  
Max Temperature 78 °F 76 °F - ()
Min Temperature 68 °F 64 °F - ()
Cooling Degree Days 8    
Growing Degree Days 23 (Base 50)    
Moisture  
Dew Point 66 °F    
Average Humidity 75    
Maximum Humidity 88    
Minimum Humidity 65    
Precipitation  
Precipitation 0.00 in 0.04 in - ()
Sea Level Pressure  
Sea Level Pressure 29.94 in    
Wind  
Wind Speed 4 mph ()    
Max Wind Speed 9 mph    
Max Gust Speed -    
Visibility 6.8 miles    
Events      
T = Trace of Precipitation, MM = Missing Value Source: Averaged Metar Reports

Daily Weather History Graph

Daily Weather History Graph

Search for Another Location

Airport or City:

Trip Planner

Search our weather history database for the weather conditions in past years. The results will help you decide how hot, cold, wet, or windy it might be!

Date:

Astronomy

Sep. 25, 2013 Rise Set
Actual Time 7:02 AM WEST 7:04 PM WEST
Civil Twilight 6:36 AM WEST 7:29 PM WEST
Nautical Twilight 6:07 AM WEST 7:59 PM WEST
Astronomical Twilight 5:37 AM WEST 8:28 PM WEST
Moon 11:09 PM WEST (9/25) 12:44 PM WEST (9/25)
Length of Visible Light 12h 52m
Length of Day
12h 02m
Waning Gibbous, 66% of the Moon is Illuminated
Sep 25
Waning Gibbous
Sep 27
Last Quarter
Oct 5
New
Oct 12
First Quarter
Oct 19
Full

Hourly Weather History & Observations

Time (WEST) Temp. Dew Point Humidity Pressure Visibility Wind Dir Wind Speed Gust Speed Precip Events Conditions
5:00 AM 69.8 °F 66.2 °F 88% 29.92 in 6.2 mi Calm Calm - N/A   Scattered Clouds
5:30 AM 68.0 °F 64.4 °F 88% 29.92 in 6.2 mi Calm Calm - N/A   Scattered Clouds
6:00 AM 68.0 °F 64.4 °F 88% 29.92 in 6.2 mi WSW 3.5 mph - N/A   Scattered Clouds
6:30 AM 68.0 °F 64.4 °F 88% 29.92 in 6.2 mi WSW 3.5 mph - N/A   Scattered Clouds
7:00 AM 68 °F 65 °F 87% 29.94 in 9 mi WSW 3.5 mph - -   Mostly Cloudy
7:00 AM 68.0 °F 64.4 °F 88% 29.95 in 6.2 mi WSW 3.5 mph - N/A   Mostly Cloudy
7:30 AM 69.8 °F 64.4 °F 83% 29.95 in 6.2 mi Variable 1.2 mph - N/A   Scattered Clouds
8:00 AM 71.6 °F 64.4 °F 78% 29.95 in 6.2 mi Variable 2.3 mph - N/A   Partly Cloudy
8:30 AM 73.4 °F 64.4 °F 73% 29.95 in 6.2 mi WSW 4.6 mph - N/A   Partly Cloudy
9:00 AM 75.2 °F 64.4 °F 69% 29.95 in 6.2 mi West 3.5 mph - N/A   Partly Cloudy
9:30 AM 75.2 °F 64.4 °F 69% 29.98 in 6.2 mi WNW 3.5 mph - N/A   Partly Cloudy
10:00 AM 77.0 °F 66.2 °F 69% 29.98 in 6.2 mi Variable 2.3 mph - N/A   Scattered Clouds
10:30 AM 77.0 °F 64.4 °F 65% 29.98 in 6.2 mi NNW 2.3 mph - N/A   Scattered Clouds
11:00 AM 77.0 °F 66.2 °F 69% 29.98 in 6.2 mi ENE 6.9 mph - N/A   Partly Cloudy
11:30 AM 77.0 °F 66.2 °F 69% 29.98 in 6.2 mi NE 6.9 mph - N/A   Partly Cloudy
12:00 PM 77.0 °F 66.2 °F 69% 29.95 in 6.2 mi ENE 5.8 mph - N/A   Partly Cloudy
12:30 PM 77.0 °F 66.2 °F 69% 29.95 in 6.2 mi ENE 5.8 mph - N/A   Partly Cloudy
1:00 PM 77 °F 69 °F 69% 29.94 in 12 mi NE 6.9 mph - -   Scattered Clouds
1:00 PM 77.0 °F 66.2 °F 69% 29.95 in 6.2 mi NNE 6.9 mph - N/A   Partly Cloudy
1:30 PM 78.8 °F 66.2 °F 65% 29.95 in 6.2 mi NNE 6.9 mph - N/A   Partly Cloudy
2:00 PM 77.0 °F 66.2 °F 69% 29.92 in 6.2 mi North 8.1 mph - N/A   Partly Cloudy
2:30 PM 77.0 °F 66.2 °F 69% 29.92 in 6.2 mi North 8.1 mph - N/A   Partly Cloudy
3:00 PM 77.0 °F 66.2 °F 69% 29.92 in 6.2 mi North 9.2 mph - N/A   Partly Cloudy
3:30 PM 78.8 °F 66.2 °F 65% 29.92 in 6.2 mi North 9.2 mph - N/A   Partly Cloudy
4:00 PM 77.0 °F 68.0 °F 74% 29.92 in 6.2 mi North 9.2 mph - N/A   Partly Cloudy
4:30 PM 77.0 °F 68.0 °F 74% 29.92 in 6.2 mi North 9.2 mph - N/A   Partly Cloudy
5:00 PM 77.0 °F 68.0 °F 74% 29.89 in 6.2 mi North 8.1 mph - N/A   Partly Cloudy
5:30 PM 77.0 °F 68.0 °F 74% 29.92 in 6.2 mi North 6.9 mph - N/A   Partly Cloudy
6:00 PM 75.2 °F 68.0 °F 78% 29.92 in 6.2 mi North 6.9 mph - N/A   Partly Cloudy
6:30 PM 75.2 °F 68.0 °F 78% 29.92 in 6.2 mi North 6.9 mph - N/A   Partly Cloudy
7:00 PM 75 °F 70 °F 79% 29.91 in 16 mi North 4.6 mph - -   Partly Cloudy
7:00 PM 75.2 °F 68.0 °F 78% 29.92 in 6.2 mi North 4.6 mph - N/A   Scattered Clouds
7:30 PM 73.4 °F 68.0 °F 83% 29.92 in 6.2 mi NW 2.3 mph - N/A   Partly Cloudy